Showing default

HAMMER, 59148

Orbit data source: Space-Track

HAMMER, 59148 is a payload satellite owned by Open Cosmos (ES) in SSO that was launched on Mon, 04 Mar 2024 UTC via an FALCON 9 launch vehicle from the Air Force Western Test Range (AFWTR). Payload-class satellites include a variety of spacecraft equipped with specific instruments for various scientific and technological missions. These include communications satellites like Starlink; space stations such as the ISS; scientific satellites like the Hubble; Earth observation satellites from companies like Planet Labs, Umbra, and HawkEye 360; GPS; miniature CubeSats for education and research; and military/defense satellites.

Loading next visibility...
Identifier
59148, 2024-043BC
Orbit
SSO
Country
Flag of ESES / SPN
Related business
Manufacturer
Open Cosmos
Mission
Operational Commercial Imaging
Bus & Motor
CUBESAT 6U, Unknown motor
Mass
~10 kg wet, ~10 kg dry
Launch date (UTC)
2024-03-04 (2 years ago)
Launch vehicle
FALCON 9
Launch site
Air Force Western Test Range (AFWTR)
Object type
Payload
Rocket body
Debris
Shape & HBR
Box + 2 Pan, 0.3 m
Radar Cross Section
0.098 m², Medium (>0.1 m² and < 1m²)

Expand to show TLE details & history
Last TLE update: 6 hours ago

TLE from 6 hours ago
0 HAMMER
1 59148U 24043BC  26036.86435734  .00036103  00000-0  78045-3 0  9997
2 59148  97.5285 180.1949 0006766 293.9317  66.1222 15.44393878107500
Epoch: 2026-02-05T20:44Z
TLE epoch observation values (Epoch: 2026-02-05T20:44:40.474Z)
Latitude
-0°
Longitude
93.01579°
Altitude
434.416 km
Speed
7.652 km/s
True Right ascension
12h 00m 46s
True Declination
0° 00' 00"
Sunlit
Object was in full shadow at epoch
Visualization orbit readout
Latitude
Unknown
Longitude
Unknown
Altitude
Unknown
Speed
Unknown
Apparent Right ascension
Unknown
Apparent Declination
Unknown
Sunlit
N/A
Visualization observer readout
Local Sidereal Time
04:53:05
Azimuth
Unknown
Elevation
Unknown
Doppler factor
Unknown
Orbital elements
Apogee altitude
434.705 km
Perigee altitude
425.492 km
Semi-major axis
6,808.235 km
Eccentricity
0.00068
Inclination
97.5285°
RAAN
180.1949°
Arg. of periapsis
293.9317°
True anomaly
66.19312°
Mean anomaly
66.1222°
Eccentric anomaly
66.15766°
Mean motion
3.86359 °/min
Orbital period
93.18 mins
BSTAR
0.00078045
Loading maneuver chart data...
Computing Atmospheric mass density...
Loading historical data...
Loading historical data...
Loading historical data...
Loading historical data...
Loading historical data...
Loading historical data...
Loading historical data...

Documentation

Showing up to 5 results
|